contact:dominique.lefevre@mio.osupytheas.fr, maurice.libes@osupytheas.fr, didier.mallarino@osupytheas.fr
Project:EMSO http://www.emso-fr.org/EMSO-France
Depth: 2436.0 m
Title:EMSO Ligure Ouest : Data MII capteur AQUADOPP
Date,Latitude,Longitude,X_East,Y_North,Z_Up,Amplitude_X,Amplitude_Y,Amplitude_Z,Batterie,SoundSpeed,Heading,Pitch,Roll,Pressure,TIS,Speed,Direction
, degrees North, degrees East, m.s-1, m.s-1,m.s-1, 1, 1, 1, Volt, m.s-1, degree, degree, degree, dbar, degree_C, m.s-1, degree
2023-08-03T00:04:03,42.805,6.029,-0.001,0.009,-0.011,102.0,103.0,102.0,13.4,1505.2,344.9,-0.8,1.8,2471.501,13.29,0.009,353.7
2023-08-03T00:07:03,42.805,6.029,0.0,0.013,-0.048,103.0,103.0,101.0,13.4,1505.2,344.5,-0.7,1.8,2471.449,13.29,0.013,0.0
2023-08-03T00:10:03,42.805,6.029,-0.017,-0.016,-0.043,102.0,103.0,101.0,13.4,1505.2,340.1,-0.8,1.8,2471.47,13.29,0.023,226.7
2023-08-03T00:13:03,42.805,6.029,-0.009,0.005,-0.041,103.0,104.0,100.0,13.4,1505.2,338.0,-0.8,1.8,2471.44,13.3,0.01,299.1
2023-08-03T00:16:03,42.805,6.029,0.006,0.014,-0.012,104.0,103.0,100.0,13.4,1505.2,348.9,-0.8,1.8,2471.434,13.29,0.015,23.2
2023-08-03T00:19:03,42.805,6.029,0.012,0.005,-0.006,103.0,102.0,101.0,13.4,1505.2,338.7,-0.8,1.8,2471.425,13.3,0.013,67.4
2023-08-03T00:22:03,42.805,6.029,0.004,-0.001,-0.007,102.0,102.0,101.0,13.3,1505.2,335.9,-0.8,1.8,2471.396,13.3,0.004,104.0
2023-08-03T00:25:03,42.805,6.029,0.0,0.008,-0.026,104.0,104.0,99.0,13.4,1505.2,332.4,-0.7,1.8,2471.43,13.3,0.008,0.0
2023-08-03T00:28:03,42.805,6.029,-0.014,0.008,-0.002,104.0,101.0,102.0,13.4,1505.2,326.8,-0.8,1.8,2471.409,13.3,0.016,299.7
2023-08-03T00:31:03,42.805,6.029,0.005,0.014,-0.032,102.0,105.0,101.0,13.3,1505.2,340.0,-0.7,1.8,2471.431,13.3,0.014,19.6
2023-08-03T00:34:03,42.805,6.029,0.0,0.002,-0.036,103.0,102.0,101.0,13.4,1505.2,347.2,-0.8,1.8,2471.406,13.3,0.002,0.0
2023-08-03T00:37:03,42.805,6.029,0.007,0.006,-0.017,104.0,102.0,102.0,13.4,1505.2,353.0,-0.8,1.8,2471.414,13.3,0.009,49.4
2023-08-03T00:40:03,42.805,6.029,-0.001,0.006,0.003,102.0,104.0,101.0,13.3,1505.2,334.7,-0.8,1.8,2471.416,13.3,0.006,350.5
2023-08-03T00:43:03,42.805,6.029,-0.01,0.004,-0.01,102.0,103.0,103.0,13.4,1505.2,330.3,-0.7,1.8,2471.401,13.29,0.01,291.8
2023-08-03T00:46:03,42.805,6.029,0.005,0.014,-0.018,103.0,101.0,101.0,13.4,1505.2,336.3,-0.7,1.8,2471.378,13.29,0.014,19.6
2023-08-03T00:49:03,42.805,6.029,-0.023,0.015,0.004,102.0,102.0,102.0,13.4,1505.2,339.9,-0.8,1.8,2471.391,13.29,0.027,303.1
2023-08-03T00:52:03,42.805,6.029,-0.009,0.019,-0.014,103.0,102.0,101.0,13.4,1505.2,327.3,-0.7,1.8,2471.384,13.29,0.021,334.7
2023-08-03T00:55:03,42.805,6.029,-0.008,0.002,-0.045,103.0,103.0,101.0,13.4,1505.2,343.7,-0.8,1.8,2471.394,13.29,0.008,284.0
2023-08-03T00:58:03,42.805,6.029,0.009,0.007,-0.009,102.0,103.0,100.0,13.4,1505.2,331.9,-0.8,1.8,2471.382,13.29,0.011,52.1
2023-08-03T01:04:03,42.805,6.029,-0.008,0.006,-0.036,103.0,104.0,102.0,13.4,1505.2,333.4,-0.8,1.8,2471.405,13.29,0.01,306.9
2023-08-03T01:07:03,42.805,6.029,0.007,0.013,-0.002,102.0,101.0,100.0,13.3,1505.2,337.1,-0.8,1.8,2471.396,13.29,0.014,28.3
2023-08-03T01:10:03,42.805,6.029,-0.003,0.01,-0.041,103.0,103.0,101.0,13.4,1505.2,352.7,-0.8,1.8,2471.412,13.29,0.01,343.3
2023-08-03T01:13:03,42.805,6.029,0.006,0.012,-0.034,104.0,102.0,100.0,13.3,1505.2,332.9,-0.7,1.8,2471.401,13.29,0.013,26.6
2023-08-03T01:16:03,42.805,6.029,-0.023,0.012,-0.011,103.0,101.0,101.0,13.3,1505.2,325.7,-0.8,1.8,2471.372,13.29,0.025,297.6
2023-08-03T01:19:03,42.805,6.029,-0.006,0.014,-0.048,103.0,101.0,102.0,13.4,1505.2,335.0,-0.8,1.8,2471.356,13.29,0.015,336.8
2023-08-03T01:22:03,42.805,6.029,0.013,0.009,-0.023,104.0,103.0,101.0,13.3,1505.2,349.9,-0.8,1.8,2471.375,13.29,0.015,55.3
2023-08-03T01:25:03,42.805,6.029,0.01,0.022,0.003,102.0,106.0,101.0,13.4,1505.2,349.9,-0.8,1.8,2471.324,13.29,0.024,24.4
2023-08-03T01:28:03,42.805,6.029,-0.021,0.012,0.0,102.0,108.0,100.0,13.4,1505.2,337.8,-0.7,1.8,2471.381,13.29,0.024,299.7
2023-08-03T01:31:03,42.805,6.029,-0.01,0.013,-0.041,101.0,102.0,101.0,13.4,1505.2,328.5,-0.8,1.8,2471.326,13.29,0.016,322.4
2023-08-03T01:34:03,42.805,6.029,0.018,0.001,-0.01,101.0,102.0,102.0,13.4,1505.2,348.9,-0.8,1.8,2471.364,13.29,0.018,86.8
2023-08-03T01:37:03,42.805,6.029,0.002,0.009,-0.021,104.0,104.0,101.0,13.4,1505.2,326.3,-0.8,1.8,2471.331,13.29,0.009,12.5
2023-08-03T01:40:03,42.805,6.029,-0.006,0.012,-0.009,103.0,102.0,101.0,13.3,1505.2,335.2,-0.8,1.8,2471.328,13.29,0.013,333.4
2023-08-03T01:43:03,42.805,6.029,0.0,0.001,-0.023,102.0,101.0,101.0,13.4,1505.2,351.0,-0.8,1.8,2471.316,13.29,0.001,0.0
2023-08-03T01:46:03,42.805,6.029,0.0,0.021,-0.009,104.0,100.0,101.0,13.3,1505.2,345.7,-0.8,1.8,2471.319,13.29,0.021,0.0
2023-08-03T01:49:03,42.805,6.029,0.001,-0.004,-0.056,103.0,102.0,100.0,13.3,1505.2,349.9,-0.8,1.8,2471.304,13.29,0.004,166.0
2023-08-03T01:52:03,42.805,6.029,-0.002,0.005,-0.013,105.0,100.0,101.0,13.4,1505.2,338.0,-0.7,1.8,2471.295,13.29,0.005,338.2
2023-08-03T01:55:03,42.805,6.029,-0.001,0.015,0.001,104.0,102.0,100.0,13.4,1505.2,335.0,-0.8,1.8,2471.319,13.29,0.015,356.2
2023-08-03T01:58:03,42.805,6.029,-0.006,0.032,-0.007,101.0,102.0,101.0,13.4,1505.2,333.4,-0.8,1.8,2471.302,13.29,0.032,349.4
2023-08-03T02:04:03,42.805,6.029,-0.008,0.015,-0.003,102.0,102.0,101.0,13.4,1505.2,340.7,-0.8,1.8,2471.372,13.29,0.017,331.9
2023-08-03T02:07:03,42.805,6.029,0.006,0.032,-0.01,102.0,102.0,101.0,13.3,1505.2,339.3,-0.7,1.8,2471.362,13.29,0.032,10.6
2023-08-03T02:10:03,42.805,6.029,-0.016,-0.005,0.005,103.0,102.0,100.0,13.3,1505.2,338.4,-0.7,1.8,2471.344,13.29,0.016,252.6
2023-08-03T02:13:03,42.805,6.029,-0.013,0.009,-0.005,101.0,103.0,100.0,13.4,1505.2,329.7,-0.8,1.8,2471.346,13.29,0.015,304.7
2023-08-03T02:16:03,42.805,6.029,0.014,0.004,-0.011,102.0,101.0,101.0,13.4,1505.2,349.9,-0.8,1.8,2471.316,13.29,0.014,74.1
2023-08-03T02:19:03,42.805,6.029,0.005,0.003,-0.017,102.0,103.0,101.0,13.3,1505.2,341.5,-0.8,1.8,2471.346,13.29,0.005,59.0
2023-08-03T02:22:03,42.805,6.029,-0.014,0.0,-0.066,101.0,102.0,100.0,13.4,1505.2,347.4,-0.8,1.9,2471.335,13.29,0.014,270.0
2023-08-03T02:25:03,42.805,6.029,0.011,0.004,-0.008,102.0,103.0,101.0,13.4,1505.2,352.1,-0.8,1.8,2471.333,13.29,0.011,70.0
2023-08-03T02:28:03,42.805,6.029,-0.014,0.027,-0.041,102.0,103.0,100.0,13.4,1505.2,343.4,-0.7,1.8,2471.326,13.29,0.03,332.6
2023-08-03T02:31:03,42.805,6.029,0.006,0.0,-0.023,102.0,102.0,101.0,13.3,1505.2,329.3,-0.8,1.8,2471.267,13.29,0.006,90.0
2023-08-03T02:34:03,42.805,6.029,-0.005,-0.005,-0.034,103.0,102.0,100.0,13.4,1505.2,331.1,-0.8,1.8,2471.329,13.29,0.007,225.0
2023-08-03T02:37:03,42.805,6.029,0.006,-0.008,-0.052,101.0,102.0,101.0,13.3,1505.2,344.4,-0.8,1.8,2471.327,13.29,0.01,143.1
2023-08-03T02:40:03,42.805,6.029,0.019,0.014,-0.007,103.0,102.0,101.0,13.3,1505.2,326.3,-0.8,1.8,2471.317,13.29,0.023,53.6
2023-08-03T02:43:03,42.805,6.029,-0.011,0.002,-0.036,101.0,102.0,101.0,13.3,1505.2,326.3,-0.8,1.8,2471.316,13.29,0.011,280.3
2023-08-03T02:46:03,42.805,6.029,-0.016,0.012,0.001,105.0,102.0,101.0,13.4,1505.2,325.1,-0.8,1.8,2471.325,13.29,0.02,306.9
2023-08-03T02:49:03,42.805,6.029,-0.008,0.039,-0.006,102.0,103.0,101.0,13.4,1505.2,345.9,-0.8,1.8,2471.314,13.29,0.039,348.4
2023-08-03T02:52:03,42.805,6.029,0.002,0.009,-0.013,102.0,102.0,101.0,13.3,1505.2,346.2,-0.7,1.8,2471.299,13.29,0.009,12.5
2023-08-03T02:55:03,42.805,6.029,0.0,0.001,-0.033,102.0,103.0,101.0,13.4,1505.2,333.9,-0.8,1.8,2471.323,13.29,0.001,0.0
2023-08-03T02:58:03,42.805,6.029,-0.007,0.019,-0.031,102.0,102.0,101.0,13.4,1505.2,340.1,-0.7,1.8,2471.324,13.29,0.02,339.8
2023-08-03T03:04:03,42.805,6.029,-0.004,0.036,-0.013,103.0,103.0,101.0,13.4,1505.2,329.1,-0.8,1.8,2471.299,13.29,0.036,353.7
2023-08-03T03:07:03,42.805,6.029,0.001,0.024,-0.002,102.0,102.0,102.0,13.3,1505.2,345.9,-0.8,1.8,2471.314,13.29,0.024,2.4
2023-08-03T03:10:03,42.805,6.029,0.0,0.021,-0.031,101.0,102.0,101.0,13.4,1505.2,340.8,-0.8,1.8,2471.351,13.29,0.021,0.0
2023-08-03T03:13:03,42.805,6.029,-0.01,0.03,-0.018,103.0,102.0,102.0,13.4,1505.2,352.8,-0.8,1.8,2471.309,13.29,0.031,341.6
2023-08-03T03:16:03,42.805,6.029,0.009,-0.021,-0.042,102.0,101.0,102.0,13.4,1505.2,340.3,-0.8,1.8,2471.306,13.29,0.022,156.8
2023-08-03T03:19:03,42.805,6.029,-0.004,0.023,0.0,100.0,104.0,102.0,13.3,1505.2,347.9,-0.7,1.9,2471.328,13.29,0.023,350.1
2023-08-03T03:22:03,42.805,6.029,-0.014,0.003,0.017,103.0,103.0,101.0,13.4,1505.2,331.4,-0.8,1.8,2471.294,13.29,0.014,282.1
2023-08-03T03:25:03,42.805,6.029,-0.001,0.002,-0.024,102.0,103.0,101.0,13.3,1505.2,347.8,-0.8,1.8,2471.321,13.29,0.002,333.4
2023-08-03T03:28:03,42.805,6.029,-0.017,0.011,0.0,102.0,102.0,101.0,13.3,1505.2,341.5,-0.8,1.8,2471.322,13.29,0.02,302.9
2023-08-03T03:31:03,42.805,6.029,-0.008,0.02,-0.022,102.0,103.0,100.0,13.4,1505.2,330.1,-0.8,1.8,2471.309,13.29,0.021,338.2
2023-08-03T03:34:03,42.805,6.029,0.001,0.017,-0.008,104.0,104.0,100.0,13.4,1505.2,333.8,-0.8,1.8,2471.324,13.29,0.017,3.4
2023-08-03T03:37:03,42.805,6.029,0.008,0.005,-0.023,103.0,102.0,101.0,13.4,1505.2,331.6,-0.7,1.8,2471.302,13.29,0.009,58.0
2023-08-03T03:40:03,42.805,6.029,-0.002,0.012,-0.022,104.0,101.0,101.0,13.4,1505.2,328.7,-0.8,1.8,2471.309,13.29,0.012,350.5
2023-08-03T03:43:03,42.805,6.029,-0.037,0.018,-0.021,102.0,102.0,101.0,13.4,1505.2,347.1,-0.8,1.8,2471.318,13.29,0.041,295.9
2023-08-03T03:46:03,42.805,6.029,0.002,-0.001,-0.035,102.0,102.0,102.0,13.4,1505.2,354.2,-0.8,1.8,2471.313,13.29,0.002,116.6
2023-08-03T03:49:03,42.805,6.029,-0.003,0.0,-0.025,102.0,102.0,101.0,13.4,1505.2,352.8,-0.8,1.8,2471.331,13.29,0.003,270.0
2023-08-03T03:52:03,42.805,6.029,-0.006,0.003,-0.008,102.0,103.0,102.0,13.4,1505.2,334.6,-0.8,1.8,2471.362,13.29,0.006,296.6
2023-08-03T03:55:03,42.805,6.029,0.002,0.017,-0.033,103.0,101.0,101.0,13.4,1505.2,338.5,-0.8,1.9,2471.273,13.29,0.017,6.7
2023-08-03T03:58:03,42.805,6.029,0.002,0.002,-0.01,102.0,103.0,101.0,13.3,1505.2,353.0,-0.8,1.8,2471.315,13.29,0.002,45.0
2023-08-03T04:04:03,42.805,6.029,0.004,-0.001,-0.005,103.0,103.0,102.0,13.4,1505.2,330.2,-0.8,1.8,2471.366,13.29,0.004,104.0
2023-08-03T04:07:03,42.805,6.029,-0.008,-0.007,-0.024,102.0,104.0,101.0,13.3,1505.2,344.5,-0.7,1.8,2471.37,13.29,0.01,228.8
2023-08-03T04:10:03,42.805,6.029,-0.01,0.011,-0.025,102.0,104.0,101.0,13.4,1505.2,331.8,-0.8,1.8,2471.364,13.29,0.014,317.7
2023-08-03T04:13:03,42.805,6.029,-0.013,-0.008,-0.038,103.0,104.0,101.0,13.3,1505.2,344.8,-0.8,1.8,2471.382,13.29,0.015,238.4
2023-08-03T04:16:03,42.805,6.029,-0.002,0.004,-0.032,102.0,103.0,101.0,13.4,1505.2,343.4,-0.8,1.8,2471.362,13.29,0.004,333.4
2023-08-03T04:19:03,42.805,6.029,-0.021,0.017,-0.015,103.0,104.0,101.0,13.4,1505.2,324.6,-0.8,1.8,2471.368,13.29,0.027,309.0
2023-08-03T04:22:03,42.805,6.029,-0.006,0.014,0.0,102.0,104.0,101.0,13.4,1505.2,341.9,-0.8,1.8,2471.361,13.29,0.015,336.8
2023-08-03T04:25:03,42.805,6.029,-0.003,0.013,-0.011,114.0,104.0,101.0,13.4,1505.2,340.2,-0.8,1.8,2471.349,13.29,0.013,347.0
2023-08-03T04:28:03,42.805,6.029,-0.01,0.009,0.012,103.0,104.0,102.0,13.3,1505.2,343.0,-0.8,1.8,2471.309,13.29,0.013,312.0
2023-08-03T04:31:03,42.805,6.029,0.005,-0.01,-0.022,104.0,102.0,101.0,13.4,1505.2,349.9,-0.7,1.8,2471.328,13.29,0.011,153.4
2023-08-03T04:34:03,42.805,6.029,0.002,0.02,-0.002,106.0,102.0,102.0,13.4,1505.2,342.6,-0.8,1.8,2471.358,13.29,0.02,5.7
2023-08-03T04:37:03,42.805,6.029,-0.011,0.008,-0.005,103.0,104.0,101.0,13.4,1505.2,331.4,-0.8,1.8,2471.379,13.29,0.013,306.0
2023-08-03T04:40:03,42.805,6.029,-0.027,0.028,-0.046,104.0,103.0,102.0,13.3,1505.2,337.3,-0.8,1.8,2471.345,13.29,0.038,316.0
2023-08-03T04:43:03,42.805,6.029,-0.02,0.02,-0.003,104.0,102.0,102.0,13.4,1505.2,340.7,-0.8,1.8,2471.348,13.29,0.028,315.0
2023-08-03T04:46:03,42.805,6.029,-0.011,0.026,-0.028,104.0,103.0,101.0,13.4,1505.2,344.5,-0.7,1.8,2471.328,13.29,0.028,337.1
2023-08-03T04:49:03,42.805,6.029,0.0,0.003,-0.017,103.0,104.0,101.0,13.4,1505.2,350.3,-0.8,1.8,2471.353,13.29,0.003,0.0
2023-08-03T04:52:03,42.805,6.029,0.006,0.022,0.0,102.0,103.0,101.0,13.3,1505.2,330.1,-0.7,1.8,2471.359,13.29,0.022,15.3
2023-08-03T04:55:03,42.805,6.029,-0.002,0.0,-0.038,104.0,103.0,102.0,13.4,1505.2,331.2,-0.7,1.8,2471.353,13.29,0.002,270.0
2023-08-03T04:58:03,42.805,6.029,-0.014,0.01,-0.02,102.0,105.0,103.0,13.4,1505.2,343.9,-0.7,1.8,2471.366,13.29,0.017,305.5
2023-08-03T05:04:03,42.805,6.029,-0.002,0.027,-0.024,103.0,104.0,102.0,13.4,1505.2,345.0,-0.8,1.8,2471.417,13.29,0.027,355.8
2023-08-03T05:07:03,42.805,6.029,-0.007,0.019,0.0,103.0,103.0,101.0,13.3,1505.2,335.5,-0.8,1.8,2471.451,13.29,0.02,339.8
2023-08-03T05:10:03,42.805,6.029,-0.014,0.022,0.007,104.0,102.0,101.0,13.3,1505.2,339.1,-0.8,1.8,2471.425,13.29,0.026,327.5
2023-08-03T05:13:03,42.805,6.029,0.014,0.022,-0.005,107.0,102.0,102.0,13.4,1505.2,346.5,-0.8,1.8,2471.373,13.29,0.026,32.5
2023-08-03T05:16:03,42.805,6.029,-0.005,-0.001,-0.006,104.0,103.0,101.0,13.4,1505.2,328.5,-0.8,1.8,2471.352,13.29,0.005,258.7
2023-08-03T05:19:03,42.805,6.029,-0.034,0.021,-0.033,104.0,104.0,99.0,13.4,1505.2,338.3,-0.7,1.9,2471.396,13.29,0.039,301.7
2023-08-03T05:22:03,42.805,6.029,-0.007,0.004,-0.028,103.0,102.0,102.0,13.4,1505.2,333.4,-0.8,1.8,2471.394,13.29,0.008,299.7
2023-08-03T05:25:03,42.805,6.029,-0.004,0.008,-0.013,104.0,103.0,102.0,13.3,1505.2,351.7,-0.7,1.8,2471.381,13.29,0.008,333.4
2023-08-03T05:28:03,42.805,6.029,-0.004,0.009,-0.031,104.0,105.0,101.0,13.4,1505.2,334.6,-0.7,1.8,2471.406,13.3,0.009,336.0
2023-08-03T05:31:03,42.805,6.029,-0.014,0.006,-0.011,105.0,104.0,101.0,13.4,1505.2,329.8,-0.8,1.8,2471.342,13.3,0.015,293.2
2023-08-03T05:34:03,42.805,6.029,0.005,0.005,-0.02,103.0,103.0,102.0,13.4,1505.2,326.5,-0.8,1.8,2471.38,13.3,0.007,45.0
2023-08-03T05:37:03,42.805,6.029,0.001,0.004,-0.025,103.0,103.0,101.0,13.3,1505.2,325.0,-0.8,1.8,2471.372,13.29,0.004,14.0
2023-08-03T05:40:03,42.805,6.029,-0.023,0.016,-0.024,103.0,103.0,102.0,13.4,1505.2,325.5,-0.8,1.8,2471.386,13.29,0.028,304.8
2023-08-03T05:43:03,42.805,6.029,-0.015,0.006,-0.023,104.0,105.0,101.0,13.3,1505.2,343.2,-0.7,1.8,2471.37,13.29,0.016,291.8
2023-08-03T05:46:03,42.805,6.029,-0.005,0.013,-0.014,103.0,103.0,102.0,13.3,1505.2,327.7,-0.8,1.8,2471.37,13.29,0.013,339.0
2023-08-03T05:49:03,42.805,6.029,0.017,0.016,-0.033,104.0,103.0,102.0,13.4,1505.2,342.9,-0.7,1.8,2471.395,13.29,0.023,46.7
2023-08-03T05:52:03,42.805,6.029,-0.01,0.014,0.014,104.0,103.0,101.0,13.4,1505.2,332.5,-0.8,1.8,2471.411,13.29,0.017,324.5
2023-08-03T05:55:03,42.805,6.029,-0.031,0.02,0.003,106.0,103.0,101.0,13.4,1505.2,337.7,-0.8,1.8,2471.414,13.29,0.036,302.8
2023-08-03T05:58:03,42.805,6.029,-0.009,-0.001,-0.003,103.0,102.0,104.0,13.4,1505.2,341.5,-0.7,1.8,2471.366,13.29,0.009,263.7
2023-08-03T06:04:03,42.805,6.029,-0.018,0.023,0.014,104.0,103.0,102.0,13.4,1505.2,341.9,-0.7,1.8,2471.398,13.29,0.029,322.0
2023-08-03T06:07:03,42.805,6.029,-0.012,0.028,-0.006,103.0,105.0,102.0,13.4,1505.2,337.7,-0.7,1.8,2471.474,13.29,0.03,336.8
2023-08-03T06:10:03,42.805,6.029,-0.003,0.026,-0.013,102.0,103.0,102.0,13.3,1505.2,341.5,-0.7,1.8,2471.465,13.29,0.026,353.4
2023-08-03T06:13:03,42.805,6.029,-0.005,-0.006,-0.043,102.0,103.0,102.0,13.4,1505.2,332.5,-0.8,1.8,2471.438,13.29,0.007,219.8
2023-08-03T06:16:03,42.805,6.029,0.0,0.02,-0.023,104.0,103.0,101.0,13.4,1505.2,337.7,-0.7,1.8,2471.445,13.29,0.02,0.0
2023-08-03T06:19:03,42.805,6.029,-0.001,0.014,-0.018,103.0,102.0,102.0,13.4,1505.2,353.0,-0.7,1.8,2471.428,13.29,0.014,355.9
2023-08-03T06:22:03,42.805,6.029,-0.009,0.006,-0.002,104.0,103.0,101.0,13.4,1505.2,333.0,-0.8,1.8,2471.411,13.29,0.01,303.7
2023-08-03T06:25:03,42.805,6.029,0.006,0.011,-0.006,103.0,103.0,101.0,13.4,1505.2,336.4,-0.8,1.8,2471.437,13.29,0.012,28.6
2023-08-03T06:28:03,42.805,6.029,-0.035,0.012,-0.042,104.0,103.0,101.0,13.3,1505.2,331.0,-0.8,1.8,2471.473,13.29,0.037,288.9
2023-08-03T06:31:03,42.805,6.029,-0.015,0.0,-0.03,103.0,103.0,102.0,13.4,1505.2,339.7,-0.7,1.9,2471.421,13.29,0.015,270.0
2023-08-03T06:34:03,42.805,6.029,0.003,0.016,-0.015,104.0,104.0,101.0,13.3,1505.2,334.3,-0.8,1.8,2471.41,13.29,0.016,10.6
2023-08-03T06:37:03,42.805,6.029,-0.015,0.042,-0.027,103.0,104.0,100.0,13.4,1505.2,340.0,-0.8,1.8,2471.469,13.29,0.044,340.4
2023-08-03T06:40:03,42.805,6.029,-0.013,0.008,0.004,104.0,104.0,102.0,13.4,1505.2,339.5,-0.8,1.8,2471.411,13.29,0.015,301.6
2023-08-03T06:43:03,42.805,6.029,-0.002,0.027,-0.005,103.0,104.0,100.0,13.4,1505.2,342.5,-0.7,1.8,2471.435,13.29,0.027,355.8
2023-08-03T06:46:03,42.805,6.029,-0.01,0.008,-0.048,103.0,102.0,103.0,13.4,1505.2,345.6,-0.8,1.8,2471.445,13.29,0.012,308.7
2023-08-03T06:49:03,42.805,6.029,-0.018,0.004,-0.003,104.0,103.0,102.0,13.3,1505.2,332.5,-0.8,1.8,2471.455,13.29,0.018,282.5
2023-08-03T06:52:03,42.805,6.029,0.009,0.027,-0.02,104.0,104.0,101.0,13.4,1505.2,343.0,-0.7,1.8,2471.451,13.29,0.028,18.4
2023-08-03T06:55:03,42.805,6.029,0.001,-0.012,-0.06,104.0,103.0,101.0,13.4,1505.2,335.9,-0.7,1.8,2471.434,13.29,0.012,175.2
2023-08-03T06:58:03,42.805,6.029,-0.009,0.011,-0.019,104.0,103.0,101.0,13.3,1505.2,347.0,-0.7,1.8,2471.44,13.29,0.014,320.7
2023-08-03T07:04:03,42.805,6.029,-0.02,0.015,-0.034,103.0,104.0,102.0,13.3,1505.2,340.5,-0.8,1.8,2471.508,13.29,0.025,306.9
2023-08-03T07:07:03,42.805,6.029,-0.005,0.005,-0.02,103.0,103.0,101.0,13.3,1505.2,333.8,-0.8,1.8,2471.485,13.29,0.007,315.0
2023-08-03T07:10:03,42.805,6.029,-0.024,0.024,-0.001,102.0,103.0,103.0,13.4,1505.2,328.4,-0.8,1.8,2471.471,13.29,0.033,315.0
2023-08-03T07:13:03,42.805,6.029,-0.01,0.016,-0.009,103.0,103.0,102.0,13.4,1505.2,345.0,-0.8,1.8,2471.502,13.29,0.018,328.0
2023-08-03T07:16:03,42.805,6.029,0.003,0.015,-0.02,103.0,103.0,101.0,13.4,1505.2,338.0,-0.7,1.8,2471.485,13.29,0.015,11.3
2023-08-03T07:19:03,42.805,6.029,0.005,0.002,-0.024,102.0,103.0,101.0,13.4,1505.2,325.0,-0.7,1.8,2471.509,13.29,0.005,68.2
2023-08-03T07:22:03,42.805,6.029,-0.01,0.002,0.0,104.0,102.0,102.0,13.4,1505.2,337.1,-0.8,1.8,2471.488,13.29,0.01,281.3
2023-08-03T07:25:03,42.805,6.029,-0.01,0.019,-0.01,103.0,104.0,101.0,13.3,1505.2,332.5,-0.7,1.8,2471.489,13.29,0.021,332.2
2023-08-03T07:28:03,42.805,6.029,-0.002,-0.01,-0.02,103.0,103.0,101.0,13.3,1505.2,350.3,-0.8,1.8,2471.481,13.29,0.01,191.3
2023-08-03T07:31:03,42.805,6.029,-0.001,0.0,-0.002,103.0,102.0,103.0,13.3,1505.2,330.3,-0.8,1.9,2471.454,13.29,0.001,270.0
2023-08-03T07:34:03,42.805,6.029,0.009,0.002,-0.019,103.0,104.0,102.0,13.4,1505.2,326.8,-0.7,1.8,2471.444,13.29,0.009,77.5
2023-08-03T07:37:03,42.805,6.029,-0.017,0.008,-0.027,103.0,104.0,102.0,13.3,1505.2,325.5,-0.7,1.8,2471.483,13.29,0.018,295.2
2023-08-03T07:40:03,42.805,6.029,-0.001,0.021,0.005,103.0,104.0,101.0,13.3,1505.2,331.1,-0.8,1.8,2471.474,13.29,0.021,357.3
2023-08-03T07:43:03,42.805,6.029,-0.008,0.002,-0.027,104.0,103.0,103.0,13.3,1505.2,337.7,-0.8,1.8,2471.477,13.29,0.008,284.0
2023-08-03T07:46:03,42.805,6.029,-0.007,0.037,-0.021,103.0,103.0,101.0,13.4,1505.2,345.4,-0.8,1.8,2471.483,13.29,0.037,349.3
2023-08-03T07:49:03,42.805,6.029,0.0,0.01,-0.017,103.0,103.0,102.0,13.3,1505.2,336.0,-0.8,1.8,2471.507,13.29,0.01,0.0
2023-08-03T07:52:03,42.805,6.029,-0.004,0.0,-0.023,103.0,102.0,102.0,13.4,1505.2,351.7,-0.8,1.8,2471.44,13.29,0.004,270.0
2023-08-03T07:55:03,42.805,6.029,-0.016,0.0,-0.047,102.0,103.0,101.0,13.3,1505.2,350.5,-0.8,1.8,2471.464,13.29,0.016,270.0
2023-08-03T07:58:03,42.805,6.029,0.016,-0.004,-0.014,104.0,103.0,102.0,13.3,1505.2,343.2,-0.8,1.8,2471.461,13.29,0.016,104.0
2023-08-03T08:04:03,42.805,6.029,-0.015,0.015,-0.033,103.0,103.0,102.0,13.4,1505.2,323.5,-0.8,1.8,2471.499,13.29,0.021,315.0
2023-08-03T08:07:03,42.805,6.029,-0.014,0.014,-0.011,103.0,103.0,101.0,13.3,1505.2,334.3,-0.8,1.8,2471.501,13.29,0.019,315.0
2023-08-03T08:10:03,42.805,6.029,-0.004,0.003,-0.03,105.0,103.0,103.0,13.4,1505.2,336.6,-0.7,1.8,2471.476,13.29,0.005,306.9
2023-08-03T08:13:03,42.805,6.029,-0.003,-0.003,-0.023,103.0,104.0,102.0,13.3,1505.2,333.8,-0.8,1.8,2471.459,13.29,0.004,225.0
2023-08-03T08:16:03,42.805,6.029,-0.006,0.008,-0.029,103.0,102.0,102.0,13.3,1505.2,329.3,-0.8,1.8,2471.494,13.29,0.01,323.1
2023-08-03T08:19:03,42.805,6.029,-0.018,0.03,-0.017,104.0,104.0,101.0,13.3,1505.2,330.1,-0.8,1.8,2471.436,13.29,0.034,329.0
2023-08-03T08:22:03,42.805,6.029,-0.008,0.006,-0.032,103.0,103.0,102.0,13.4,1505.2,343.0,-0.7,1.8,2471.496,13.29,0.01,306.9
2023-08-03T08:25:03,42.805,6.029,-0.003,0.032,-0.009,103.0,103.0,102.0,13.4,1505.2,353.5,-0.8,1.8,2471.502,13.29,0.032,354.6
2023-08-03T08:28:03,42.805,6.029,0.0,-0.003,-0.009,103.0,103.0,102.0,13.4,1505.2,354.5,-0.7,1.8,2471.456,13.29,0.003,180.0
2023-08-03T08:31:03,42.805,6.029,0.019,0.02,0.002,103.0,103.0,101.0,13.3,1505.2,329.3,-0.8,1.8,2471.461,13.29,0.027,43.5
2023-08-03T08:34:03,42.805,6.029,0.0,0.0,-0.027,103.0,103.0,101.0,13.4,1505.2,348.4,-0.7,1.8,2471.474,13.29,0.0,0.0
2023-08-03T08:37:03,42.805,6.029,-0.017,0.025,-0.042,103.0,103.0,102.0,13.3,1505.2,331.9,-0.8,1.8,2471.476,13.29,0.03,325.8
2023-08-03T08:40:03,42.805,6.029,-0.036,0.007,-0.042,103.0,104.0,101.0,13.4,1505.2,334.4,-0.8,1.8,2471.501,13.29,0.036,281.0
2023-08-03T08:43:03,42.805,6.029,-0.01,0.022,0.002,103.0,103.0,102.0,13.4,1505.2,338.4,-0.7,1.8,2471.502,13.29,0.024,335.6
2023-08-03T08:46:03,42.805,6.029,-0.014,0.03,-0.028,104.0,103.0,102.0,13.3,1505.2,352.7,-0.8,1.8,2471.443,13.29,0.033,335.0
2023-08-03T08:49:03,42.805,6.029,-0.013,-0.003,-0.019,103.0,104.0,102.0,13.3,1505.2,327.1,-0.8,1.8,2471.442,13.29,0.013,257.0
2023-08-03T08:52:03,42.805,6.029,-0.014,0.023,0.007,105.0,102.0,101.0,13.4,1505.2,345.3,-0.8,1.8,2471.431,13.29,0.026,328.7
2023-08-03T08:55:03,42.805,6.029,0.007,0.005,-0.015,104.0,103.0,101.0,13.4,1505.2,338.3,-0.7,1.8,2471.447,13.29,0.008,54.5
2023-08-03T08:58:03,42.805,6.029,-0.011,0.008,-0.019,103.0,104.0,101.0,13.4,1505.2,348.6,-0.8,1.8,2471.475,13.29,0.013,306.0
2023-08-03T09:04:03,42.805,6.029,-0.002,0.024,-0.005,104.0,103.0,102.0,13.3,1505.2,346.2,-0.8,1.8,2471.493,13.29,0.024,355.2
2023-08-03T09:07:03,42.805,6.029,-0.003,0.008,-0.009,103.0,103.0,101.0,13.4,1505.2,331.0,-0.8,1.8,2471.459,13.29,0.008,339.4
2023-08-03T09:10:03,42.805,6.029,0.0,0.023,-0.034,102.0,104.0,102.0,13.4,1505.2,333.9,-0.8,1.8,2471.535,13.29,0.023,0.0
2023-08-03T09:13:03,42.805,6.029,-0.024,0.011,-0.048,103.0,104.0,102.0,13.4,1505.2,339.6,-0.8,1.8,2471.477,13.29,0.026,294.6
2023-08-03T09:16:03,42.805,6.029,-0.017,0.034,-0.01,104.0,104.0,101.0,13.4,1505.2,354.2,-0.8,1.8,2471.479,13.29,0.038,333.4
2023-08-03T09:19:03,42.805,6.029,-0.008,-0.012,-0.035,104.0,103.0,101.0,13.4,1505.2,331.9,-0.8,1.8,2471.442,13.29,0.014,213.7
2023-08-03T09:22:03,42.805,6.029,0.011,0.012,-0.003,103.0,103.0,103.0,13.4,1505.2,354.4,-0.8,1.8,2471.461,13.29,0.016,42.5
2023-08-03T09:25:03,42.805,6.029,-0.032,0.035,-0.019,103.0,103.0,102.0,13.4,1505.2,336.3,-0.8,1.8,2471.431,13.29,0.047,317.6
2023-08-03T09:28:03,42.805,6.029,0.003,0.031,-0.014,104.0,102.0,102.0,13.4,1505.2,343.0,-0.7,1.8,2471.468,13.29,0.031,5.5
2023-08-03T09:31:03,42.805,6.029,-0.001,0.0,-0.045,103.0,102.0,101.0,13.4,1505.2,334.3,-0.7,1.8,2471.481,13.29,0.001,270.0
2023-08-03T09:34:03,42.805,6.029,0.009,0.021,-0.029,104.0,103.0,102.0,13.4,1505.2,343.4,-0.8,1.8,2471.443,13.29,0.022,23.2
2023-08-03T09:37:03,42.805,6.029,-0.008,0.033,-0.012,103.0,103.0,101.0,13.4,1505.2,331.9,-0.7,1.8,2471.45,13.29,0.033,346.4
2023-08-03T09:40:03,42.805,6.029,0.0,0.021,-0.019,103.0,104.0,102.0,13.4,1505.2,329.7,-0.8,1.8,2471.441,13.29,0.021,0.0
2023-08-03T09:43:03,42.805,6.029,-0.026,0.026,0.008,104.0,103.0,102.0,13.3,1505.2,335.5,-0.8,1.8,2471.423,13.29,0.036,315.0
2023-08-03T09:46:03,42.805,6.029,-0.017,0.033,-0.023,103.0,104.0,102.0,13.3,1505.2,355.6,-0.7,1.8,2471.414,13.29,0.037,332.7
2023-08-03T09:49:03,42.805,6.029,0.0,0.004,-0.053,104.0,104.0,102.0,13.3,1505.2,353.0,-0.8,1.8,2471.42,13.29,0.004,0.0
2023-08-03T09:52:03,42.805,6.029,0.006,0.005,-0.009,103.0,104.0,102.0,13.4,1505.2,326.3,-0.8,1.8,2471.433,13.29,0.007,50.2
2023-08-03T09:55:03,42.805,6.029,-0.013,0.008,-0.016,104.0,103.0,102.0,13.4,1505.2,345.9,-0.8,1.8,2471.409,13.29,0.015,301.6
2023-08-03T09:58:03,42.805,6.029,0.02,0.013,-0.019,103.0,103.0,102.0,13.3,1505.2,348.6,-0.8,1.8,2471.431,13.29,0.023,57.0